Location: Shepherdstown, WV
(39.4326°N, 77.8042°W)
Time: 06:34:40
(UTC-04:00)

Vanguard 1 - Pass Details

Date: 10 August 2021
Orbit: 652 x 3831 km, 34.3° (Epoch: 24 September)

Event Time Altitude Azimuth Distance (km) Brightness Sun altitude
Rises 12:00:21 0° 266° (W) 2,960 12.4 60.7°
Reaches altitude 10° 12:02:34 10° 259° (WSW) 2,068 11.7 61.0°
Maximum altitude 12:06:50 43° 186° (S) 1,035 11.4 61.5°
Drops below altitude 10° 12:12:31 10° 116° (ESE) 2,753 12.9 62.1°
Sets 12:15:55 0° 111° (ESE) 4,094 13.6 62.5°
